Year,Month,Day,Hour,Minute,Value (Times are PST for temperature in C)
2022,10,06,00,00,14.80
2022,10,06,00,01,14.80
2022,10,06,00,02,14.80
2022,10,06,00,03,14.70
2022,10,06,00,04,14.70
2022,10,06,00,05,14.60
2022,10,06,00,06,14.60
2022,10,06,00,07,14.60
2022,10,06,00,08,14.50
2022,10,06,00,09,14.50
2022,10,06,00,10,14.40
2022,10,06,00,11,14.40
2022,10,06,00,12,14.40
2022,10,06,00,13,14.30
2022,10,06,00,14,14.30
2022,10,06,00,15,14.30
2022,10,06,00,16,14.20
2022,10,06,00,17,14.20
2022,10,06,00,18,14.20
2022,10,06,00,19,14.20
2022,10,06,00,20,14.20
2022,10,06,00,21,14.10
2022,10,06,00,22,14.10
2022,10,06,00,23,14.10
2022,10,06,00,24,14.10
2022,10,06,00,25,14.00
2022,10,06,00,26,14.00
2022,10,06,00,27,14.00
2022,10,06,00,28,13.90
2022,10,06,00,29,13.90
2022,10,06,00,30,13.90
2022,10,06,00,31,13.90
2022,10,06,00,32,13.90
2022,10,06,00,33,13.80
2022,10,06,00,34,13.80
2022,10,06,00,35,13.80
2022,10,06,00,36,13.80
2022,10,06,00,37,13.80
2022,10,06,00,38,13.80
2022,10,06,00,39,13.80
2022,10,06,00,40,13.80
2022,10,06,00,41,13.80
2022,10,06,00,42,13.70
2022,10,06,00,43,13.70
2022,10,06,00,44,13.70
2022,10,06,00,45,13.70
2022,10,06,00,46,13.70
2022,10,06,00,47,13.70
2022,10,06,00,48,13.70
2022,10,06,00,49,13.70
2022,10,06,00,50,13.70
2022,10,06,00,51,13.70
2022,10,06,00,52,13.70
2022,10,06,00,53,13.70
2022,10,06,00,54,13.70
2022,10,06,00,55,13.70
2022,10,06,00,56,13.70
2022,10,06,00,57,13.70
2022,10,06,00,58,13.70
2022,10,06,00,59,13.70
2022,10,06,01,00,13.60
2022,10,06,01,01,13.70
2022,10,06,01,02,13.60
2022,10,06,01,03,13.60
2022,10,06,01,04,13.60
2022,10,06,01,05,13.60
2022,10,06,01,06,13.60
2022,10,06,01,07,13.60
2022,10,06,01,08,13.50
2022,10,06,01,09,13.50
2022,10,06,01,10,13.40
2022,10,06,01,11,13.40
2022,10,06,01,12,13.40
2022,10,06,01,13,13.40
2022,10,06,01,14,13.30
2022,10,06,01,15,13.30
2022,10,06,01,16,13.30
2022,10,06,01,17,13.30
2022,10,06,01,18,13.30
2022,10,06,01,19,13.30
2022,10,06,01,20,13.30
2022,10,06,01,21,13.30
2022,10,06,01,22,13.30
2022,10,06,01,23,13.30
2022,10,06,01,24,13.40
2022,10,06,01,25,13.40
2022,10,06,01,26,13.50
2022,10,06,01,27,13.50
2022,10,06,01,28,13.60
2022,10,06,01,29,13.60
2022,10,06,01,30,13.70
2022,10,06,01,31,13.70
2022,10,06,01,32,13.80
2022,10,06,01,33,13.80
2022,10,06,01,34,13.80
2022,10,06,01,35,13.90
2022,10,06,01,36,13.90
2022,10,06,01,37,14.00
2022,10,06,01,38,14.10
2022,10,06,01,39,14.30
2022,10,06,01,40,14.40
2022,10,06,01,41,14.50
2022,10,06,01,42,14.60
2022,10,06,01,43,14.70
2022,10,06,01,44,14.80
2022,10,06,01,45,14.80
2022,10,06,01,46,14.90
2022,10,06,01,47,14.90
2022,10,06,01,48,15.00
2022,10,06,01,49,15.10
2022,10,06,01,50,15.20
2022,10,06,01,51,15.40
2022,10,06,01,52,15.50
2022,10,06,01,53,15.60
2022,10,06,01,54,15.70
2022,10,06,01,55,15.80
2022,10,06,01,56,15.90
2022,10,06,01,57,15.90
2022,10,06,01,58,15.90
2022,10,06,01,59,15.90
2022,10,06,02,00,16.00
2022,10,06,02,01,16.00
2022,10,06,02,02,16.00
2022,10,06,02,03,16.00
2022,10,06,02,04,16.00
2022,10,06,02,05,16.00
2022,10,06,02,06,16.10
2022,10,06,02,07,16.00
2022,10,06,02,08,16.00
2022,10,06,02,09,16.00
2022,10,06,02,10,15.90
2022,10,06,02,11,15.90
2022,10,06,02,12,15.80
2022,10,06,02,13,15.80
2022,10,06,02,14,15.80
2022,10,06,02,15,15.90
2022,10,06,02,16,15.90
2022,10,06,02,17,15.90
2022,10,06,02,18,15.90
2022,10,06,02,19,15.90
2022,10,06,02,20,15.90
2022,10,06,02,21,15.90
2022,10,06,02,22,15.90
2022,10,06,02,23,15.90
2022,10,06,02,24,15.90
2022,10,06,02,25,15.90
2022,10,06,02,26,15.80
2022,10,06,02,27,15.80
2022,10,06,02,28,15.70
2022,10,06,02,29,15.80
2022,10,06,02,30,15.80
2022,10,06,02,31,15.70
2022,10,06,02,32,15.80
2022,10,06,02,33,15.80
2022,10,06,02,34,15.80
2022,10,06,02,35,15.80
2022,10,06,02,36,15.90
2022,10,06,02,37,15.90
2022,10,06,02,38,15.90
2022,10,06,02,39,15.90
2022,10,06,02,40,15.90
2022,10,06,02,41,15.90
2022,10,06,02,42,15.80
2022,10,06,02,43,15.80
2022,10,06,02,44,15.70
2022,10,06,02,45,15.70
2022,10,06,02,46,15.70
2022,10,06,02,47,15.70
2022,10,06,02,48,15.80
2022,10,06,02,49,15.80
2022,10,06,02,50,15.80
2022,10,06,02,51,15.80
2022,10,06,02,52,15.80
2022,10,06,02,53,15.80
2022,10,06,02,54,15.70
2022,10,06,02,55,15.70
2022,10,06,02,56,15.70
2022,10,06,02,57,15.70
2022,10,06,02,58,15.70
2022,10,06,02,59,15.70
2022,10,06,03,00,15.60
2022,10,06,03,01,15.60
2022,10,06,03,02,15.60
2022,10,06,03,03,15.60
2022,10,06,03,04,15.50
2022,10,06,03,05,15.40
2022,10,06,03,06,15.40
2022,10,06,03,07,15.40
2022,10,06,03,08,15.40
2022,10,06,03,09,15.40
2022,10,06,03,10,15.40
2022,10,06,03,11,15.40
2022,10,06,03,12,15.30
2022,10,06,03,13,15.30
2022,10,06,03,14,15.30
2022,10,06,03,15,15.20
2022,10,06,03,16,15.20
2022,10,06,03,17,15.10
2022,10,06,03,18,15.10
2022,10,06,03,19,15.00
2022,10,06,03,20,14.90
2022,10,06,03,21,14.90
2022,10,06,03,22,14.80
2022,10,06,03,23,14.80
2022,10,06,03,24,14.70
2022,10,06,03,25,14.70
2022,10,06,03,26,14.60
2022,10,06,03,27,14.50
2022,10,06,03,28,14.40
2022,10,06,03,29,14.40
2022,10,06,03,30,14.40
2022,10,06,03,31,14.40
2022,10,06,03,32,14.40
2022,10,06,03,33,14.40
2022,10,06,03,34,14.40
2022,10,06,03,35,14.30
2022,10,06,03,36,14.30
2022,10,06,03,37,14.30
2022,10,06,03,38,14.30
2022,10,06,03,39,14.20
2022,10,06,03,40,14.20
2022,10,06,03,41,14.10
2022,10,06,03,42,14.10
2022,10,06,03,43,14.10
2022,10,06,03,44,14.00
2022,10,06,03,45,14.00
2022,10,06,03,46,13.90
2022,10,06,03,47,13.90
2022,10,06,03,48,13.90
2022,10,06,03,49,13.80
2022,10,06,03,50,13.80
2022,10,06,03,51,13.80
2022,10,06,03,52,13.80
2022,10,06,03,53,13.80
2022,10,06,03,54,14.00
2022,10,06,03,55,14.10
2022,10,06,03,56,14.10
2022,10,06,03,57,14.10
2022,10,06,03,58,14.20
2022,10,06,03,59,14.30
2022,10,06,04,00,14.30
2022,10,06,04,01,14.30
2022,10,06,04,02,14.30
2022,10,06,04,03,14.20
2022,10,06,04,04,14.20
2022,10,06,04,05,14.20
2022,10,06,04,06,14.30
2022,10,06,04,07,14.30
2022,10,06,04,08,14.20
2022,10,06,04,09,14.20
2022,10,06,04,10,14.20
2022,10,06,04,11,14.20
2022,10,06,04,12,14.20
2022,10,06,04,13,14.20
2022,10,06,04,14,14.20
2022,10,06,04,15,14.20
2022,10,06,04,16,14.20
2022,10,06,04,17,14.20
2022,10,06,04,18,14.20
2022,10,06,04,19,14.30
2022,10,06,04,20,14.30
2022,10,06,04,21,14.20
2022,10,06,04,22,14.20
2022,10,06,04,23,14.20
2022,10,06,04,24,14.20
2022,10,06,04,25,14.20
2022,10,06,04,26,14.20
2022,10,06,04,27,14.20
2022,10,06,04,28,14.20
2022,10,06,04,29,14.20
2022,10,06,04,30,14.20
2022,10,06,04,31,14.10
2022,10,06,04,32,14.10
2022,10,06,04,33,14.10
2022,10,06,04,34,14.10
2022,10,06,04,35,14.00
2022,10,06,04,36,14.00
2022,10,06,04,37,14.00
2022,10,06,04,38,13.90
2022,10,06,04,39,13.90
2022,10,06,04,40,13.90
2022,10,06,04,41,13.90
2022,10,06,04,42,13.90
2022,10,06,04,43,13.80
2022,10,06,04,44,13.80
2022,10,06,04,45,13.80
2022,10,06,04,46,13.80
2022,10,06,04,47,13.80
2022,10,06,04,48,13.80
2022,10,06,04,49,13.90
2022,10,06,04,50,14.00
2022,10,06,04,51,14.10
2022,10,06,04,52,14.10
2022,10,06,04,53,14.20
2022,10,06,04,54,14.20
2022,10,06,04,55,14.30
2022,10,06,04,56,14.30
2022,10,06,04,57,14.40
2022,10,06,04,58,14.40
2022,10,06,04,59,14.40
2022,10,06,05,00,14.40
2022,10,06,05,01,14.50
2022,10,06,05,02,14.70
2022,10,06,05,03,14.80
2022,10,06,05,04,14.80
2022,10,06,05,05,14.80
2022,10,06,05,06,14.70
2022,10,06,05,07,14.70
2022,10,06,05,08,14.70
2022,10,06,05,09,14.70
2022,10,06,05,10,14.70
2022,10,06,05,11,14.80
2022,10,06,05,12,14.70
2022,10,06,05,13,14.70
2022,10,06,05,14,14.70
2022,10,06,05,15,14.70
2022,10,06,05,16,14.80
2022,10,06,05,17,14.80
2022,10,06,05,18,14.80
2022,10,06,05,19,14.90
2022,10,06,05,20,14.90
2022,10,06,05,21,14.90
2022,10,06,05,22,15.00
2022,10,06,05,23,14.90
2022,10,06,05,24,14.90
2022,10,06,05,25,15.00
2022,10,06,05,26,15.00
2022,10,06,05,27,15.00
2022,10,06,05,28,14.90
2022,10,06,05,29,14.90
2022,10,06,05,30,14.90
2022,10,06,05,31,15.00
2022,10,06,05,32,15.00
2022,10,06,05,33,15.00
2022,10,06,05,34,15.10
2022,10,06,05,35,15.10
2022,10,06,05,36,15.10
2022,10,06,05,37,15.10
2022,10,06,05,38,15.20
2022,10,06,05,39,15.20
2022,10,06,05,40,15.20
2022,10,06,05,41,15.20
2022,10,06,05,42,15.20
2022,10,06,05,43,15.20
2022,10,06,05,44,15.20
2022,10,06,05,45,15.20
2022,10,06,05,46,15.10
2022,10,06,05,47,15.10
2022,10,06,05,48,15.10
2022,10,06,05,49,15.10
2022,10,06,05,50,15.20
2022,10,06,05,51,15.20
2022,10,06,05,52,15.30
2022,10,06,05,53,15.30
2022,10,06,05,54,15.30
2022,10,06,05,55,15.40
2022,10,06,05,56,15.40
2022,10,06,05,57,15.30
2022,10,06,05,58,15.30
2022,10,06,05,59,15.40
2022,10,06,06,00,15.40
2022,10,06,06,01,15.40
2022,10,06,06,02,15.40
2022,10,06,06,03,15.50
2022,10,06,06,04,15.60
2022,10,06,06,05,15.60
2022,10,06,06,06,15.60
2022,10,06,06,07,15.60
2022,10,06,06,08,15.60
2022,10,06,06,09,15.60
2022,10,06,06,10,15.60
2022,10,06,06,11,15.70
2022,10,06,06,12,15.70
2022,10,06,06,13,15.70
2022,10,06,06,14,15.70
2022,10,06,06,15,15.60
2022,10,06,06,16,15.60
2022,10,06,06,17,15.60
2022,10,06,06,18,15.50
2022,10,06,06,19,15.40
2022,10,06,06,20,15.40
2022,10,06,06,21,15.30
2022,10,06,06,22,15.40
2022,10,06,06,23,15.40
2022,10,06,06,24,15.40
2022,10,06,06,25,15.40
2022,10,06,06,26,15.40
2022,10,06,06,27,15.40
2022,10,06,06,28,15.40
2022,10,06,06,29,15.30
2022,10,06,06,30,15.30
2022,10,06,06,31,15.30
2022,10,06,06,32,15.20
2022,10,06,06,33,15.10
2022,10,06,06,34,15.10
2022,10,06,06,35,15.10
2022,10,06,06,36,15.10
2022,10,06,06,37,15.10
2022,10,06,06,38,15.10
2022,10,06,06,39,15.10
2022,10,06,06,40,15.10
2022,10,06,06,41,15.10
2022,10,06,06,42,15.10
2022,10,06,06,43,15.10
2022,10,06,06,44,15.10
2022,10,06,06,45,15.00
2022,10,06,06,46,15.00
2022,10,06,06,47,15.00
2022,10,06,06,48,15.00
2022,10,06,06,49,15.00
2022,10,06,06,50,15.00
2022,10,06,06,51,15.00
2022,10,06,06,52,15.10
2022,10,06,06,53,15.10
2022,10,06,06,54,15.20
2022,10,06,06,55,15.20
2022,10,06,06,56,15.20
2022,10,06,06,57,15.20
2022,10,06,06,58,15.10
2022,10,06,06,59,15.10
2022,10,06,07,00,15.10
2022,10,06,07,01,15.00
2022,10,06,07,02,14.90
2022,10,06,07,03,14.90
2022,10,06,07,04,14.90
2022,10,06,07,05,14.90
2022,10,06,07,06,14.80
2022,10,06,07,07,14.80
2022,10,06,07,08,14.80
2022,10,06,07,09,14.80
2022,10,06,07,10,14.80
2022,10,06,07,11,14.70
2022,10,06,07,12,14.60
2022,10,06,07,13,14.60
2022,10,06,07,14,14.60
2022,10,06,07,15,14.50
2022,10,06,07,16,14.40
2022,10,06,07,17,14.40
2022,10,06,07,18,14.30
2022,10,06,07,19,14.30
2022,10,06,07,20,14.20
2022,10,06,07,21,14.20
2022,10,06,07,22,14.10
2022,10,06,07,23,14.00
2022,10,06,07,24,14.00
2022,10,06,07,25,14.00
2022,10,06,07,26,13.90
2022,10,06,07,27,13.90
2022,10,06,07,28,13.90
2022,10,06,07,29,13.90
2022,10,06,07,30,13.80
2022,10,06,07,31,13.80
2022,10,06,07,32,13.80
2022,10,06,07,33,13.70
2022,10,06,07,34,13.70
2022,10,06,07,35,13.60
2022,10,06,07,36,13.60
2022,10,06,07,37,13.50
2022,10,06,07,38,13.50
2022,10,06,07,39,13.40
2022,10,06,07,40,13.50
2022,10,06,07,41,13.40
2022,10,06,07,42,13.40
2022,10,06,07,43,13.40
2022,10,06,07,44,13.40
2022,10,06,07,45,13.50
2022,10,06,07,46,13.50
2022,10,06,07,47,13.40
2022,10,06,07,48,13.40
2022,10,06,07,49,13.50
2022,10,06,07,50,13.50
2022,10,06,07,51,13.50
2022,10,06,07,52,13.50
2022,10,06,07,53,13.60
2022,10,06,07,54,13.60
2022,10,06,07,55,13.70
2022,10,06,07,56,13.80
2022,10,06,07,57,13.90
2022,10,06,07,58,13.90
2022,10,06,07,59,13.90
2022,10,06,08,00,13.90
2022,10,06,08,01,13.90
2022,10,06,08,02,13.90
2022,10,06,08,03,13.90
2022,10,06,08,04,14.00
2022,10,06,08,05,14.10
2022,10,06,08,06,14.20
2022,10,06,08,07,14.30
2022,10,06,08,08,14.40
2022,10,06,08,09,14.50
2022,10,06,08,10,14.50
2022,10,06,08,11,14.60
2022,10,06,08,12,14.60
2022,10,06,08,13,14.60
2022,10,06,08,14,14.60
2022,10,06,08,15,14.60
2022,10,06,08,16,14.70
2022,10,06,08,17,14.70
2022,10,06,08,18,14.80
2022,10,06,08,19,14.80
2022,10,06,08,20,14.80
2022,10,06,08,21,14.90
2022,10,06,08,22,14.90
2022,10,06,08,23,15.00
2022,10,06,08,24,15.00
2022,10,06,08,25,15.10
2022,10,06,08,26,15.20
2022,10,06,08,27,15.30
2022,10,06,08,28,15.40
2022,10,06,08,29,15.50
2022,10,06,08,30,15.60
2022,10,06,08,31,15.70
2022,10,06,08,32,15.70
2022,10,06,08,33,15.80
2022,10,06,08,34,15.80
2022,10,06,08,35,15.80
2022,10,06,08,36,15.90
2022,10,06,08,37,15.90
2022,10,06,08,38,16.00
2022,10,06,08,39,16.00
2022,10,06,08,40,16.00
2022,10,06,08,41,16.10
2022,10,06,08,42,16.10
2022,10,06,08,43,16.10
2022,10,06,08,44,16.20
2022,10,06,08,45,16.20
2022,10,06,08,46,16.20
2022,10,06,08,47,16.20
2022,10,06,08,48,16.20
2022,10,06,08,49,16.30
2022,10,06,08,50,16.30
2022,10,06,08,51,16.40
2022,10,06,08,52,16.50
2022,10,06,08,53,16.50
2022,10,06,08,54,16.60
2022,10,06,08,55,16.60
2022,10,06,08,56,16.70
2022,10,06,08,57,16.70
2022,10,06,08,58,16.80
2022,10,06,08,59,16.80
2022,10,06,09,00,16.80
2022,10,06,09,01,16.90
2022,10,06,09,02,16.90
2022,10,06,09,03,16.90
2022,10,06,09,04,16.90
2022,10,06,09,05,17.00
2022,10,06,09,06,17.00
2022,10,06,09,07,17.10
2022,10,06,09,08,17.10
2022,10,06,09,09,17.10
2022,10,06,09,10,17.10
2022,10,06,09,11,17.10
2022,10,06,09,12,17.20
2022,10,06,09,13,17.20
2022,10,06,09,14,17.20
2022,10,06,09,15,17.20
2022,10,06,09,16,17.20
2022,10,06,09,17,17.20
2022,10,06,09,18,17.30
2022,10,06,09,19,17.30
2022,10,06,09,20,17.30
2022,10,06,09,21,17.40
2022,10,06,09,22,17.40
2022,10,06,09,23,17.40
2022,10,06,09,24,17.50
2022,10,06,09,25,17.50
2022,10,06,09,26,17.60
2022,10,06,09,27,17.60
2022,10,06,09,28,17.60
2022,10,06,09,29,17.70
2022,10,06,09,30,17.70
2022,10,06,09,31,17.80
2022,10,06,09,32,17.80
2022,10,06,09,33,17.90
2022,10,06,09,34,17.90
2022,10,06,09,35,17.90
2022,10,06,09,36,18.00
2022,10,06,09,37,18.00
2022,10,06,09,38,18.10
2022,10,06,09,39,18.10
2022,10,06,09,40,18.10
2022,10,06,09,41,18.00
2022,10,06,09,42,18.00
2022,10,06,09,43,18.00
2022,10,06,09,44,18.00
2022,10,06,09,45,18.00
2022,10,06,09,46,18.10
2022,10,06,09,47,18.00
2022,10,06,09,48,18.10
2022,10,06,09,49,18.10
2022,10,06,09,50,18.10
2022,10,06,09,51,18.20
2022,10,06,09,52,18.20
2022,10,06,09,53,18.20
2022,10,06,09,54,18.20
2022,10,06,09,55,18.30
2022,10,06,09,56,18.30
2022,10,06,09,57,18.40
2022,10,06,09,58,18.40
2022,10,06,09,59,18.40
2022,10,06,10,00,18.50
2022,10,06,10,01,18.50
2022,10,06,10,02,18.60
2022,10,06,10,03,18.60
2022,10,06,10,04,18.70
2022,10,06,10,05,18.70
2022,10,06,10,06,18.80
2022,10,06,10,07,18.80
2022,10,06,10,08,18.90
2022,10,06,10,09,19.00
2022,10,06,10,10,19.00
2022,10,06,10,11,19.00
2022,10,06,10,12,19.10
2022,10,06,10,13,19.10
2022,10,06,10,14,19.20
2022,10,06,10,15,19.20
2022,10,06,10,16,19.30
2022,10,06,10,17,19.30
2022,10,06,10,18,19.30
2022,10,06,10,19,19.40
2022,10,06,10,20,19.40
2022,10,06,10,21,19.40
2022,10,06,10,22,19.50
2022,10,06,10,23,19.50
2022,10,06,10,24,19.50
2022,10,06,10,25,19.50
2022,10,06,10,26,19.50
2022,10,06,10,27,19.60
2022,10,06,10,28,19.60
2022,10,06,10,29,19.60
2022,10,06,10,30,19.60
2022,10,06,10,31,19.60
2022,10,06,10,32,19.60
2022,10,06,10,33,19.60
2022,10,06,10,34,19.70
2022,10,06,10,35,19.70
2022,10,06,10,36,19.80
2022,10,06,10,37,19.80
2022,10,06,10,38,19.80
2022,10,06,10,39,19.90
2022,10,06,10,40,19.90
2022,10,06,10,41,19.80
2022,10,06,10,42,19.80
2022,10,06,10,43,19.80
2022,10,06,10,44,19.80
2022,10,06,10,45,19.70
2022,10,06,10,46,19.70
2022,10,06,10,47,19.70
2022,10,06,10,48,19.60
2022,10,06,10,49,19.60
2022,10,06,10,50,19.60
2022,10,06,10,51,19.70
2022,10,06,10,52,19.70
2022,10,06,10,53,19.70
2022,10,06,10,54,19.70
2022,10,06,10,55,19.60
2022,10,06,10,56,19.60
2022,10,06,10,57,19.60
2022,10,06,10,58,19.60
2022,10,06,10,59,19.60
2022,10,06,11,00,19.50
2022,10,06,11,01,19.60
2022,10,06,11,02,19.60
2022,10,06,11,03,19.60
2022,10,06,11,04,19.60
2022,10,06,11,05,19.60
2022,10,06,11,06,19.60
2022,10,06,11,07,19.50
2022,10,06,11,08,19.40
2022,10,06,11,09,19.40
2022,10,06,11,10,19.40
2022,10,06,11,11,19.40
2022,10,06,11,12,19.40
2022,10,06,11,13,19.40
2022,10,06,11,14,19.40
2022,10,06,11,15,19.50
2022,10,06,11,16,19.60
2022,10,06,11,17,19.70
2022,10,06,11,18,19.80
2022,10,06,11,19,19.90
2022,10,06,11,20,20.00
2022,10,06,11,21,20.00
2022,10,06,11,22,20.00
2022,10,06,11,23,20.00
2022,10,06,11,24,20.00
2022,10,06,11,25,20.00
2022,10,06,11,26,20.00
2022,10,06,11,27,20.10
2022,10,06,11,28,20.10
2022,10,06,11,29,20.10
2022,10,06,11,30,20.10
2022,10,06,11,31,20.20
2022,10,06,11,32,20.20
2022,10,06,11,33,20.20
2022,10,06,11,34,20.20
2022,10,06,11,35,20.10
2022,10,06,11,36,20.20
2022,10,06,11,37,20.20
2022,10,06,11,38,20.20
2022,10,06,11,39,20.30
2022,10,06,11,40,20.30
2022,10,06,11,41,20.40
2022,10,06,11,42,20.40
2022,10,06,11,43,20.40
2022,10,06,11,44,20.40
2022,10,06,11,45,20.40
2022,10,06,11,46,20.40
2022,10,06,11,47,20.50
2022,10,06,11,48,20.50
2022,10,06,11,49,20.50
2022,10,06,11,50,20.50
2022,10,06,11,51,20.50
2022,10,06,11,52,20.60
2022,10,06,11,53,20.60
2022,10,06,11,54,20.60
2022,10,06,11,55,20.60
2022,10,06,11,56,20.70
2022,10,06,11,57,20.70
2022,10,06,11,58,20.80
2022,10,06,11,59,20.80
2022,10,06,12,00,20.80
2022,10,06,12,01,20.90
2022,10,06,12,02,20.90
2022,10,06,12,03,21.00
2022,10,06,12,04,21.00
2022,10,06,12,05,21.10
2022,10,06,12,06,21.10
2022,10,06,12,07,21.20
2022,10,06,12,08,21.20
2022,10,06,12,09,21.20
2022,10,06,12,10,21.20
2022,10,06,12,11,21.20
2022,10,06,12,12,21.20
2022,10,06,12,13,21.20
2022,10,06,12,14,21.20
2022,10,06,12,15,21.30
2022,10,06,12,16,21.30
2022,10,06,12,17,21.30
2022,10,06,12,18,21.20
2022,10,06,12,19,21.20
2022,10,06,12,20,21.20
2022,10,06,12,21,21.30
2022,10,06,12,22,21.30
2022,10,06,12,23,21.30
2022,10,06,12,24,21.30
2022,10,06,12,25,21.30
2022,10,06,12,26,21.30
2022,10,06,12,27,21.30
2022,10,06,12,28,21.30
2022,10,06,12,29,21.30
2022,10,06,12,30,21.30
2022,10,06,12,31,21.40
2022,10,06,12,32,21.50
2022,10,06,12,33,21.60
2022,10,06,12,34,21.70
2022,10,06,12,35,21.70
2022,10,06,12,36,21.70
2022,10,06,12,37,21.70
2022,10,06,12,38,21.70
2022,10,06,12,39,21.80
2022,10,06,12,40,21.80
2022,10,06,12,41,21.80
2022,10,06,12,42,21.90
2022,10,06,12,43,22.00
2022,10,06,12,44,22.00
2022,10,06,12,45,22.10
2022,10,06,12,46,22.10
2022,10,06,12,47,22.10
2022,10,06,12,48,22.20
2022,10,06,12,49,22.10
2022,10,06,12,50,22.10
2022,10,06,12,51,22.10
2022,10,06,12,52,22.10
2022,10,06,12,53,22.20
2022,10,06,12,54,22.20
2022,10,06,12,55,22.20
2022,10,06,12,56,22.20
2022,10,06,12,57,22.10
2022,10,06,12,58,22.10
2022,10,06,12,59,22.10
2022,10,06,13,00,22.10
2022,10,06,13,01,22.10
2022,10,06,13,02,22.10
2022,10,06,13,03,22.10
2022,10,06,13,04,22.10
2022,10,06,13,05,22.20
2022,10,06,13,06,22.30
2022,10,06,13,07,22.40
2022,10,06,13,08,22.50
2022,10,06,13,09,22.50
2022,10,06,13,10,22.60
2022,10,06,13,11,22.60
2022,10,06,13,12,22.50
2022,10,06,13,13,22.40
2022,10,06,13,14,22.30
2022,10,06,13,15,22.20
2022,10,06,13,16,22.10
2022,10,06,13,17,22.10
2022,10,06,13,18,22.10
2022,10,06,13,19,22.10
2022,10,06,13,20,22.00
2022,10,06,13,21,21.90
2022,10,06,13,22,21.90
2022,10,06,13,23,21.90
2022,10,06,13,24,22.00
2022,10,06,13,25,22.10
2022,10,06,13,26,22.10
2022,10,06,13,27,22.10
2022,10,06,13,28,22.20
2022,10,06,13,29,22.20
2022,10,06,13,30,22.30
2022,10,06,13,31,22.40
2022,10,06,13,32,22.40
2022,10,06,13,33,22.50
2022,10,06,13,34,22.60
2022,10,06,13,35,22.60
2022,10,06,13,36,22.60
2022,10,06,13,37,22.60
2022,10,06,13,38,22.60
2022,10,06,13,39,22.70
2022,10,06,13,40,22.70
2022,10,06,13,41,22.70
2022,10,06,13,42,22.70
2022,10,06,13,43,22.70
2022,10,06,13,44,22.70
2022,10,06,13,45,22.60
2022,10,06,13,46,22.70
2022,10,06,13,47,22.60
2022,10,06,13,48,22.60
2022,10,06,13,49,22.60
2022,10,06,13,50,22.70
2022,10,06,13,51,22.80
2022,10,06,13,52,22.80
2022,10,06,13,53,22.80
2022,10,06,13,54,22.80
2022,10,06,13,55,22.80
2022,10,06,13,56,22.80
2022,10,06,13,57,22.80
2022,10,06,13,58,22.80
2022,10,06,13,59,22.80
2022,10,06,14,00,22.90
2022,10,06,14,01,23.00
2022,10,06,14,02,23.00
2022,10,06,14,03,23.00
2022,10,06,14,04,23.00
2022,10,06,14,05,23.10
2022,10,06,14,06,23.10
2022,10,06,14,07,23.10
2022,10,06,14,08,23.10
2022,10,06,14,09,23.10
2022,10,06,14,10,23.10
2022,10,06,14,11,23.00
2022,10,06,14,12,22.90
2022,10,06,14,13,22.80
2022,10,06,14,14,22.80
2022,10,06,14,15,22.80
2022,10,06,14,16,22.90
2022,10,06,14,17,22.90
2022,10,06,14,18,23.00
2022,10,06,14,19,23.10
2022,10,06,14,20,23.10
2022,10,06,14,21,23.20
2022,10,06,14,22,23.20
2022,10,06,14,23,23.20
2022,10,06,14,24,23.30
2022,10,06,14,25,23.20
2022,10,06,14,26,23.20
2022,10,06,14,27,23.10
2022,10,06,14,28,23.10
2022,10,06,14,29,23.10
2022,10,06,14,30,23.10
2022,10,06,14,31,23.00
2022,10,06,14,32,23.00
2022,10,06,14,33,23.10
2022,10,06,14,34,23.00
2022,10,06,14,35,23.00
2022,10,06,14,36,22.90
2022,10,06,14,37,22.90
2022,10,06,14,38,22.90
2022,10,06,14,39,22.90
2022,10,06,14,40,22.90
2022,10,06,14,41,22.90
2022,10,06,14,42,22.90
2022,10,06,14,43,22.90
2022,10,06,14,44,22.90
2022,10,06,14,45,22.90
2022,10,06,14,46,22.90
2022,10,06,14,47,22.90
2022,10,06,14,48,22.90
2022,10,06,14,49,22.90
2022,10,06,14,50,23.00
2022,10,06,14,51,23.00
2022,10,06,14,52,23.00
2022,10,06,14,53,23.00
2022,10,06,14,54,23.00
2022,10,06,14,55,23.00
2022,10,06,14,56,23.00
2022,10,06,14,57,23.00
2022,10,06,14,58,23.10
2022,10,06,14,59,23.10
2022,10,06,15,00,23.10
2022,10,06,15,01,23.10
2022,10,06,15,02,23.10
2022,10,06,15,03,23.20
2022,10,06,15,04,23.20
2022,10,06,15,05,23.30
2022,10,06,15,06,23.30
2022,10,06,15,07,23.30
2022,10,06,15,08,23.30
2022,10,06,15,09,23.30
2022,10,06,15,10,23.30
2022,10,06,15,11,23.30
2022,10,06,15,12,23.30
2022,10,06,15,13,23.30
2022,10,06,15,14,23.30
2022,10,06,15,15,23.30
2022,10,06,15,16,23.30
2022,10,06,15,17,23.30
2022,10,06,15,18,23.30
2022,10,06,15,19,23.30
2022,10,06,15,20,23.30
2022,10,06,15,21,23.30
2022,10,06,15,22,23.30
2022,10,06,15,23,23.40
2022,10,06,15,24,23.40
2022,10,06,15,25,23.40
2022,10,06,15,26,23.40
2022,10,06,15,27,23.40
2022,10,06,15,28,23.50
2022,10,06,15,29,23.50
2022,10,06,15,30,23.50
2022,10,06,15,31,23.50
2022,10,06,15,32,23.50
2022,10,06,15,33,23.50
2022,10,06,15,34,23.50
2022,10,06,15,35,23.50
2022,10,06,15,36,23.50
2022,10,06,15,37,23.60
2022,10,06,15,38,23.60
2022,10,06,15,39,23.60
2022,10,06,15,40,23.70
2022,10,06,15,41,23.70
2022,10,06,15,42,23.70
2022,10,06,15,43,23.70
2022,10,06,15,44,23.70
2022,10,06,15,45,23.80
2022,10,06,15,46,23.80
2022,10,06,15,47,23.90
2022,10,06,15,48,23.90
2022,10,06,15,49,23.90
2022,10,06,15,50,23.90
2022,10,06,15,51,23.90
2022,10,06,15,52,23.90
2022,10,06,15,53,23.90
2022,10,06,15,54,24.00
2022,10,06,15,55,24.00
2022,10,06,15,56,24.00
2022,10,06,15,57,24.00
2022,10,06,15,58,24.00
2022,10,06,15,59,24.00
2022,10,06,16,00,24.00
2022,10,06,16,01,23.90
2022,10,06,16,02,23.90
2022,10,06,16,03,23.90
2022,10,06,16,04,23.90
2022,10,06,16,05,23.90
2022,10,06,16,06,24.00
2022,10,06,16,07,24.10
2022,10,06,16,08,24.20
2022,10,06,16,09,24.20
2022,10,06,16,10,24.20
2022,10,06,16,11,24.20
2022,10,06,16,12,24.20
2022,10,06,16,13,24.20
2022,10,06,16,14,24.20
2022,10,06,16,15,24.20
2022,10,06,16,16,24.20
2022,10,06,16,17,24.20
2022,10,06,16,18,24.20
2022,10,06,16,19,24.20
2022,10,06,16,20,24.30
2022,10,06,16,21,24.30
2022,10,06,16,22,24.30
2022,10,06,16,23,24.20
2022,10,06,16,24,24.20
2022,10,06,16,25,24.20
2022,10,06,16,26,24.10
2022,10,06,16,27,24.10
2022,10,06,16,28,24.00
2022,10,06,16,29,24.00
2022,10,06,16,30,24.00
2022,10,06,16,31,24.00
2022,10,06,16,32,23.90
2022,10,06,16,33,24.00
2022,10,06,16,34,24.00
2022,10,06,16,35,24.00
2022,10,06,16,36,24.00
2022,10,06,16,37,24.00
2022,10,06,16,38,24.00
2022,10,06,16,39,24.00
2022,10,06,16,40,24.00
2022,10,06,16,41,24.00
2022,10,06,16,42,24.10
2022,10,06,16,43,24.10
2022,10,06,16,44,24.00
2022,10,06,16,45,24.00
2022,10,06,16,46,24.00
2022,10,06,16,47,23.90
2022,10,06,16,48,23.90
2022,10,06,16,49,23.90
2022,10,06,16,50,23.90
2022,10,06,16,51,23.90
2022,10,06,16,52,23.80
2022,10,06,16,53,23.80
2022,10,06,16,54,23.80
2022,10,06,16,55,23.80
2022,10,06,16,56,23.80
2022,10,06,16,57,23.80
2022,10,06,16,58,23.80
2022,10,06,16,59,23.80
2022,10,06,17,00,23.80
2022,10,06,17,01,23.80
2022,10,06,17,02,23.80
2022,10,06,17,03,23.80
2022,10,06,17,04,23.80
2022,10,06,17,05,23.80
2022,10,06,17,06,23.80
2022,10,06,17,07,23.80
2022,10,06,17,08,23.90
2022,10,06,17,09,23.80
2022,10,06,17,10,23.80
2022,10,06,17,11,23.80
2022,10,06,17,12,23.80
2022,10,06,17,13,23.80
2022,10,06,17,14,23.80
2022,10,06,17,15,23.80
2022,10,06,17,16,23.90
2022,10,06,17,17,23.90
2022,10,06,17,18,23.90
2022,10,06,17,19,23.90